map of FRG home
FRG - Airport
Location
City:  Farmingdale, New York, United States
Name:Republic Airport
ICAO:KFRG
IATA:FRG
FAA LID:FRG

Details
Type:Airport (Part 139 Class IV)
Use:Public/Civil, International (customs landing rights)
Latitude:4043'44"N (40.728778)
Longitude:7324'48"W (-73.413416)
Datum:WGS 1984
Elevation:80 ft (24 m)
Variation:13.17W (WMM2015 magnetic declination)
0.03 annual change
Runways:2
Longest:6833 × 150 ft (2083 × 45.5 m), paved

Time
Time Zone:UTC-5 (DST-4)
Local Time:

Weather
METAR:KFRG 180753Z AUTO 32008KT 10SM CLR 04/M03 A3032 RMK AO2 SLP266 T00441033

Related Locations
Nearby:
Farthest:YAUG: 11792 mi / 18978 km
Augusta [Augusta Airport], WA, AU

Find:

   beyond  
but within

Other Information
Maps:
NOTAMs:
Links:
Sources:

  
  • flag of United States
  • flag of New York
  

Airport Diagram

Airport diagram for FRG

Airport diagram PDF

Sectional Chart

Flight Planning
at skyvector.com

Satellite Image

Google Maps Satellite view

 

Copyright © 2004-2018 Karl L. Swartz. All rights reserved.
The Great Circle Mapper name and logo are trademarks of the Great Circle Mapper.
All other trademarks mentioned herein belong to their respective owners.
Please see credits for attibutions and further copyright information.

  Follow gcmap on Facebook Follow gcmap on Twitter Follow gcmap on Google+ GCmap on LinkedIn

hCard Microformat

Geo Microformat